Temperature
18 18 18 18 18 18 18 18 18 18 18 18 18 18 18 18 18 18 18 18 18 18 18 18 18 18 17 17 17 17 17 17 17 17 17 17 17 16 16 16 16 16 16
18 18 18 18 18 18 18 18 18 18 18 18 18 18 18 18 18 18 18 18 18 18 18 18 18 17 17 17 17 17 17 17 17 17 17 17 17 17 16 16 16 16 16
18 18 18 18 18 18 18 18 18 18 18 18 18 18 18 18 18 18 18 18 18 18 18 18 17 17 17 17 17 17 17 17 17 17 17 17 17 17 16 16 16 16 16
18 18 18 18 18 18 18 18 18 18 18 18 18 18 18 18 18 18 18 18 18 18 18 18 18 17 17 17 17 17 17 17 17 17 17 17 17 17 16 16 16 16 16
18 18 18 18 18 18 18 18 18 18 18 18 18 18 18 18 18 18 18 18 18 18 18 18 17 17 17 17 17 17 17 17 17 17 17 17 17 17 17 16 16 16 16
18 18 18 18 18 18 18 18 18 18 18 18 18 18 18 18 18 18 18 18 18 18 18 17 17 17 17 17 17 17 17 17 17 17 17 17 17 17 17 16 16 16 16
18 18 18 18 18 18 18 18 18 18 18 18 18 18 18 18 18 18 18 18 18 18 17 17 17 17 17 17 17 17 17 17 17 17 17 17 17 17 16 16 16 16 16
18 18 18 18 18 18 18 18 18 18 18 18 18 18 18 18 18 18 18 18 18 18 17 17 17 17 17 17 17 17 17 17 17 17 17 17 17 16 16 16 16 16 16
18 18 18 19 18 18 18 18 18 18 18 18 18 18 18 18 18 18 18 18 18 18 17 17 17 17 17 17 17 17 17 17 17 17 17 16 16 16 16 16 16 16 16
18 18 18 18 18 18 18 18 18 18 18 18 18 18 18 18 18 18 18 18 18 18 18 17 17 17 17 17 17 17 17 17 17 17 16 16 16 16 16 16 16 16 16
18 18 18 18 18 18 18 18 18 18 18 18 18 18 18 18 18 18 18 18 18 17 17 17 17 17 17 17 16 16 16 16 16 16 16 16 16 16 16 16 15 15 15
18 18 18 18 18 18 18 18 18 18 18 18 18 18 18 18 18 18 18 18 17 17 17 17 17 17 17 16 16 16 16 16 16 16 16 16 16 16 16 15 15 15 15
18 18 18 18 18 18 18 18 18 18 17 18 18 18 17 18 18 18 18 17 17 17 17 17 17 16 16 16 16 16 16 16 16 16 16 16 15 15 15 15 15 15 15
18 18 18 18 18 18 18 18 17 17 17 17 17 17 17 17 17 17 17 17 17 17 17 17 16 16 16 16 16 16 15 15 15 15 15 15 15 15 15 15 15 14 14
18 18 18 18 18 18 17 17 17 17 17 17 17 17 17 17 17 17 17 17 17 16 16 16 16 16 16 16 16 15 15 15 15 15 15 15 15 14 14 14 14 14 14
18 18 18 18 18 17 17 17 17 17 17 17 17 17 17 17 17 17 17 17 17 16 16 16 15 15 15 15 15 15 15 14 14 14 14 14 14 14 14 14 14 14 14
18 18 17 17 17 17 17 17 17 17 17 16 16 16 16 16 16 16 16 16 16 16 16 15 15 15 15 15 15 14 14 14 14 14 14 14 14 14 13 13 13 13 13
18 17 17 17 17 17 17 17 17 17 16 16 16 16 16 16 16 16 16 16 16 16 16 15 15 14 14 14 14 14 14 14 14 14 13 13 13 13 13 13 13 13 12
17 17 17 17 17 17 17 17 16 16 16 16 16 16 16 16 16 16 16 16 15 15 15 15 14 14 14 14 14 13 13 13 13 13 13 13 13 13 13 12 12 12 12
17 17 17 17 17 16 16 16 16 16 16 16 16 16 16 16 16 16 15 15 15 15 15 14 14 14 14 14 13 13 13 13 13 12 13 13 13 12 12 12 12 12 12
17 17 17 16 16 16 16 16 16 16 16 16 16 16 15 15 15 15 15 15 15 14 14 14 14 14 13 13 13 13 13 13 12 12 12 12 12 12 12 12 12 12 11
17 17 16 16 16 16 16 16 16 16 16 16 15 15 15 15 15 15 15 14 14 14 14 14 13 13 13 13 13 13 12 12 12 12 12 12 12 12 12 12 12 11 11
17 16 16 16 16 16 16 16 16 15 15 15 15 15 14 14 14 14 14 14 14 14 14 14 13 13 13 13 13 13 12 12 12 12 12 12 11 11 12 11 11 11 11
16 16 16 15 16 16 16 15 15 15 15 15 15 14 14 14 14 14 14 14 14 13 13 13 13 13 13 13 13 13 12 12 12 12 12 12 11 11 11 11 11 11 11
16 16 15 15 15 15 15 15 15 15 14 14 14 14 14 14 14 14 13 13 13 13 13 13 13 13 13 12 12 12 12 12 12 12 11 11 11 11 11 11 11 11 10
16 15 15 15 15 15 15 15 15 14 14 14 14 14 14 14 14 14 13 13 13 13 13 13 13 12 12 12 12 12 12 12 11 11 11 11 11 11 11 11 10 10 10
Wind_Speed
2 2 2 3 3 5 5 3 2 3 2 2 2 3 2 1 3 5 9 14 14 13 13 12 12 12 11 11 10 11 11 12 12 12 12 11 11 11 11 12 11 11 10
2 1 1 1 1 2 3 3 3 2 3 2 2 2 3 2 2 5 8 9 11 13 13 13 13 13 12 12 12 11 12 12 12 12 12 12 11 11 12 12 12 12 12
2 1 2 1 1 2 3 3 2 2 2 2 2 2 2 3 3 4 6 8 9 11 13 14 14 13 12 12 12 12 11 12 12 12 11 12 12 11 11 11 12 13 13
2 1 2 1 1 1 1 2 2 1 1 1 1 2 2 2 4 4 5 6 7 8 11 13 13 13 12 12 11 12 11 11 12 12 12 12 12 12 12 13 13 13 13
2 1 1 1 1 1 0 1 1 1 1 1 2 3 3 3 3 4 4 5 7 7 9 12 13 13 12 12 12 11 10 11 12 12 12 12 13 12 12 13 13 13 13
2 2 2 0 1 1 1 0 1 1 1 2 3 2 2 3 2 2 3 4 5 7 8 9 11 11 12 11 11 11 11 11 12 12 11 11 12 12 12 12 12 11 11
2 1 1 1 0 1 1 1 1 1 2 2 1 1 2 2 3 3 2 2 3 5 7 8 9 8 9 12 11 11 11 12 12 12 11 11 11 11 12 12 12 11 11
2 2 1 1 1 1 0 1 1 1 2 1 1 1 0 0 1 3 3 4 4 3 4 6 7 7 7 7 9 12 11 11 11 11 11 11 10 11 11 12 12 12 11
2 1 2 0 1 1 1 2 1 1 1 2 1 1 1 1 1 1 2 3 3 3 3 4 6 7 7 7 7 10 11 11 10 10 10 10 10 9 9 11 12 12 11
2 2 2 1 1 1 1 2 1 2 1 2 2 2 2 2 1 1 1 1 3 3 3 2 3 5 6 6 6 7 10 10 10 10 10 10 10 10 10 9 9 10 10
3 3 3 2 1 1 1 2 0 1 1 2 2 1 2 2 3 2 2 2 1 1 2 2 2 3 5 5 4 5 8 9 10 10 10 10 10 9 9 9 9 9 8
3 3 3 2 2 1 1 2 1 1 1 2 2 2 2 2 2 2 2 2 2 1 1 1 1 2 4 5 4 4 7 8 8 8 8 8 8 8 7 7 7 7 6
2 2 2 2 1 1 2 2 1 2 2 2 2 3 3 3 2 1 2 2 1 1 1 1 1 1 3 6 5 4 6 7 7 6 6 6 5 6 6 5 5 5 5
1 2 2 2 2 1 1 1 1 2 1 2 3 2 3 2 2 1 1 1 2 1 1 1 1 2 3 5 5 5 5 7 7 6 5 5 5 5 5 5 5 5 4
1 2 2 2 2 1 1 1 1 1 1 2 2 2 3 2 1 1 1 1 1 1 1 1 1 2 3 5 5 5 5 6 6 6 6 6 6 6 6 6 5 5 4
1 1 1 1 1 1 1 1 1 1 1 1 1 1 2 2 1 1 1 1 1 1 1 0 1 1 2 2 4 4 5 6 7 7 7 7 8 8 7 7 6 6 6
1 1 1 0 1 1 1 1 1 1 1 1 1 1 1 1 1 2 1 1 0 1 1 0 1 2 2 2 2 2 3 6 5 6 8 8 9 8 8 8 7 7 6
1 0 0 0 1 0 0 1 1 1 1 1 1 1 1 1 1 2 2 1 1 1 1 1 1 1 2 2 2 1 2 4 5 6 8 9 9 9 9 8 7 7 6
1 0 1 1 1 1 1 1 1 0 0 1 1 1 1 2 2 1 1 1 1 1 2 2 1 1 2 2 1 0 1 2 4 7 8 8 8 9 8 8 7 7 6
2 1 1 0 1 0 1 1 0 0 1 1 2 2 2 2 2 2 1 2 2 1 1 2 2 2 2 1 1 1 1 1 1 4 5 7 8 8 7 7 7 7 7
2 1 1 1 1 0 1 2 2 1 1 1 2 2 3 4 4 3 2 2 1 1 1 1 2 2 2 2 1 1 1 1 1 3 3 4 5 5 6 6 6 6 7
2 2 1 1 1 1 2 3 2 1 1 1 1 1 2 3 3 4 4 3 2 1 0 0 1 1 2 1 1 1 1 1 1 1 2 3 4 3 5 6 7 8 7
2 2 2 1 1 1 1 2 2 1 0 1 1 0 0 2 2 2 2 3 2 2 0 1 0 0 2 2 2 2 1 1 1 2 2 2 3 3 4 6 9 10 9
2 2 2 2 2 2 2 1 1 2 2 2 1 1 1 2 2 1 0 2 2 1 1 1 0 0 1 1 2 2 2 1 1 1 2 2 2 2 3 5 10 10 10
3 3 3 3 2 2 2 2 3 3 2 2 2 1 1 3 2 1 1 1 1 2 2 3 2 2 3 3 2 1 1 2 1 2 2 1 2 2 2 3 7 10 10
4 3 3 3 3 3 4 4 4 4 3 3 3 3 2 3 3 1 1 1 2 1 1 2 2 3 4 4 4 3 2 2 1 1 2 1 2 1 1 2 4 7 7
Wind_Direction
118 117 143 172 184 174 165 165 173 173 167 187 197 167 125 118 141 138 148 163 169 175 181 184 188 190 193 195 199 203 206 209 212 213 213 212 213 214 214 215 216 217 219
104 120 141 142 156 159 165 162 180 181 178 178 188 148 140 159 153 135 146 163 176 183 188 193 195 197 199 201 203 206 211 214 215 216 216 218 219 220 222 222 222 222 223
130 146 138 163 157 177 175 176 181 176 190 183 171 174 160 159 147 145 154 163 181 192 194 196 198 200 200 201 203 208 215 216 216 216 218 219 220 221 223 224 225 227 228
165 146 138 161 158 162 163 173 186 171 165 156 169 201 167 170 167 166 174 175 178 187 193 197 200 201 202 204 208 212 215 218 216 215 218 220 220 222 224 226 226 229 230
153 129 97 61 201 146 167 210 137 147 171 176 195 194 196 194 186 191 179 187 185 179 179 190 196 198 202 207 211 213 213 217 218 218 222 225 224 225 224 225 228 229 230
153 127 138 190 231 151 164 129 124 147 209 219 240 213 200 192 193 204 200 183 181 181 178 181 186 196 202 207 210 215 215 216 218 217 221 221 221 222 223 223 223 226 228
150 137 107 173 180 131 156 146 150 206 221 206 222 240 228 210 195 199 207 192 187 181 169 166 174 183 193 207 211 215 217 218 217 215 216 218 223 226 223 221 222 224 227
174 165 134 219 131 160 163 274 192 235 256 203 181 214 244 289 250 214 202 206 191 169 161 169 175 179 184 183 206 215 216 216 218 218 217 219 225 226 224 220 219 223 226
178 121 139 188 243 205 175 248 248 241 262 268 201 192 202 209 223 254 233 198 184 183 181 171 178 179 186 182 190 205 208 210 214 216 216 218 222 223 224 224 220 221 224
187 171 164 166 250 265 187 249 187 265 252 267 257 215 213 158 194 229 263 223 192 192 190 196 174 168 178 178 183 187 194 202 207 212 214 214 216 218 221 225 226 224 220
202 190 163 157 221 251 222 274 269 262 277 274 279 268 246 221 221 207 223 241 248 189 167 167 180 155 156 163 159 166 179 194 205 212 215 217 219 220 222 223 226 226 218
195 183 154 156 201 217 212 242 247 252 255 279 293 296 279 247 227 216 225 222 223 230 173 157 185 155 142 138 146 158 165 178 194 206 211 215 218 219 219 220 222 219 216
171 144 142 144 189 221 214 239 216 251 251 263 264 270 274 277 282 256 224 238 230 230 201 187 184 148 128 122 126 129 150 157 173 189 199 204 208 213 213 211 207 201 197
129 128 147 155 182 212 228 224 235 244 238 256 267 272 277 280 289 276 217 224 255 243 195 179 82 87 88 105 114 125 128 141 150 159 170 175 175 173 172 168 170 171 169
132 113 147 160 176 197 232 222 214 263 268 257 273 274 273 275 296 313 316 269 244 263 248 162 81 74 89 93 108 117 120 133 143 145 150 152 149 144 137 135 138 139 137
42 89 128 137 168 197 214 222 229 233 236 255 258 298 305 322 329 316 293 292 251 228 246 122 101 86 78 87 97 108 129 139 151 152 151 148 141 132 127 124 121 122 122
53 91 131 149 164 221 215 232 250 247 249 266 289 317 334 339 333 320 325 329 305 153 184 117 107 101 86 76 80 94 126 124 124 142 146 140 138 134 132 129 127 124 123
74 43 213 257 246 250 230 235 256 276 285 318 354 20 356 342 7 347 355 4 19 112 149 148 116 108 106 109 104 98 110 116 120 127 136 138 137 135 133 131 129 129 132
119 208 197 214 257 286 277 255 243 265 52 40 37 42 28 24 20 2 8 11 19 82 121 139 151 118 108 96 97 72 105 123 134 138 139 140 136 135 136 136 131 130 138
146 143 99 16 232 358 322 312 76 61 84 77 68 57 47 43 25 356 25 40 43 57 118 148 155 141 130 123 125 159 128 127 127 127 129 139 146 145 145 145 143 144 145
175 150 179 221 213 167 0 28 16 72 72 87 85 88 83 80 69 49 51 46 49 77 139 162 156 152 142 147 159 198 153 145 133 126 140 151 149 152 155 158 153 153 153
180 180 203 215 268 295 47 44 30 19 81 92 85 110 144 119 107 100 91 79 68 88 142 179 170 166 151 149 166 203 186 166 167 163 158 173 160 158 158 153 159 157 155
192 198 216 203 162 118 72 60 43 306 210 181 179 226 262 104 102 101 147 158 122 99 101 258 261 168 165 177 195 219 216 207 180 178 168 176 153 152 157 163 168 168 167
207 215 221 220 201 192 188 182 289 246 222 192 202 183 121 103 59 38 220 154 153 155 187 153 86 259 162 191 201 212 208 193 171 151 142 167 164 161 150 158 175 174 174
211 219 219 218 220 180 202 225 261 243 217 196 200 166 143 122 102 25 278 191 180 186 159 141 152 191 190 202 202 198 199 183 203 184 163 169 168 159 167 169 172 179 182
215 227 225 213 212 188 203 222 247 250 226 209 189 160 137 144 159 143 244 244 237 254 220 184 196 212 203 196 202 199 208 213 199 182 165 176 183 166 185 170 162 181 192
Height
1532 1533 1533 1533 1535 1536 1537 1538 1538 1540 1541 1541 1542 1543 1544 1546 1547 1547 1548 1549 1550 1551 1552 1553 1553 1554 1555 1557 1558 1559 1560 1562 1563 1564 1566 1567 1568 1569 1571 1571 1572 1573 1574
1533 1533 1534 1534 1535 1536 1537 1538 1539 1540 1541 1541 1542 1543 1544 1545 1546 1547 1547 1548 1549 1550 1550 1551 1552 1553 1554 1555 1556 1557 1558 1560 1561 1563 1564 1565 1566 1567 1568 1569 1570 1571 1572
1533 1533 1534 1534 1535 1536 1537 1538 1539 1539 1540 1541 1542 1542 1544 1544 1546 1546 1547 1547 1548 1549 1549 1549 1550 1551 1552 1553 1554 1556 1557 1558 1559 1560 1561 1563 1564 1564 1566 1567 1567 1568 1570
1533 1534 1534 1535 1536 1537 1537 1538 1538 1539 1540 1540 1541 1542 1543 1544 1544 1545 1546 1547 1547 1547 1547 1547 1548 1549 1550 1551 1552 1554 1555 1555 1556 1558 1559 1560 1561 1562 1563 1564 1565 1566 1566
1533 1534 1534 1535 1536 1536 1537 1537 1538 1538 1539 1540 1541 1541 1542 1543 1544 1544 1545 1545 1546 1546 1546 1546 1547 1547 1548 1549 1551 1552 1552 1553 1554 1555 1556 1557 1558 1559 1560 1561 1561 1562 1563
1533 1534 1534 1534 1536 1536 1536 1537 1537 1537 1538 1539 1540 1540 1541 1542 1543 1543 1544 1544 1544 1545 1545 1545 1545 1546 1547 1548 1548 1549 1550 1550 1551 1552 1553 1554 1555 1556 1556 1557 1558 1559 1560
1533 1533 1534 1534 1535 1535 1536 1536 1536 1537 1537 1538 1538 1539 1540 1540 1541 1542 1542 1542 1543 1543 1544 1544 1544 1544 1544 1545 1546 1547 1547 1548 1548 1549 1550 1551 1552 1552 1553 1554 1555 1556 1556
1533 1533 1533 1533 1534 1534 1534 1535 1535 1535 1536 1537 1537 1538 1538 1540 1539 1540 1540 1541 1542 1542 1542 1542 1542 1542 1542 1543 1543 1544 1544 1545 1545 1546 1547 1547 1548 1549 1550 1551 1552 1553 1553
1532 1533 1532 1532 1533 1533 1533 1534 1534 1534 1535 1536 1536 1537 1537 1537 1538 1538 1538 1539 1540 1540 1540 1540 1540 1541 1541 1541 1541 1541 1541 1542 1542 1543 1544 1544 1545 1546 1547 1548 1548 1549 1550
1532 1532 1532 1532 1532 1532 1532 1533 1533 1533 1534 1534 1535 1535 1536 1536 1537 1537 1537 1537 1538 1538 1539 1539 1539 1539 1539 1538 1538 1538 1539 1539 1540 1540 1540 1541 1542 1542 1543 1544 1545 1545 1546
1531 1531 1531 1531 1531 1531 1531 1531 1532 1532 1532 1532 1533 1534 1534 1534 1535 1535 1535 1536 1536 1537 1537 1537 1537 1537 1536 1536 1536 1536 1536 1536 1536 1537 1537 1538 1538 1539 1540 1540 1541 1542 1542
1530 1530 1530 1530 1530 1530 1530 1531 1531 1531 1531 1531 1532 1532 1532 1533 1533 1533 1533 1534 1534 1535 1535 1535 1535 1535 1534 1534 1533 1533 1533 1533 1533 1533 1534 1534 1535 1536 1536 1537 1538 1538 1539
1529 1529 1529 1528 1529 1529 1529 1530 1530 1530 1530 1530 1530 1530 1530 1531 1531 1531 1532 1532 1532 1532 1533 1533 1533 1533 1533 1532 1531 1531 1530 1530 1530 1531 1531 1531 1532 1532 1533 1534 1535 1535 1536
1528 1527 1527 1527 1527 1528 1528 1528 1528 1528 1529 1529 1529 1529 1529 1529 1529 1529 1530 1530 1530 1530 1530 1531 1531 1531 1530 1530 1529 1529 1528 1528 1527 1528 1528 1528 1529 1529 1530 1531 1531 1532 1533
1526 1526 1526 1526 1526 1527 1527 1527 1527 1527 1527 1527 1527 1527 1527 1527 1527 1527 1527 1528 1529 1528 1528 1528 1529 1529 1528 1528 1527 1526 1526 1526 1525 1525 1525 1525 1526 1526 1527 1528 1529 1529 1530
1525 1525 1525 1525 1525 1526 1526 1526 1525 1525 1525 1525 1525 1525 1525 1525 1525 1525 1525 1525 1525 1526 1526 1525 1526 1526 1526 1526 1525 1524 1524 1524 1524 1524 1523 1523 1524 1524 1525 1526 1526 1527 1527
1523 1523 1524 1524 1524 1524 1524 1524 1524 1524 1524 1524 1524 1523 1523 1523 1523 1523 1523 1523 1523 1523 1523 1523 1524 1524 1523 1523 1523 1522 1522 1522 1522 1522 1522 1522 1522 1523 1523 1524 1524 1525 1525
1521 1522 1522 1522 1522 1523 1523 1523 1523 1523 1522 1522 1522 1522 1522 1521 1521 1521 1521 1521 1521 1521 1521 1521 1522 1522 1521 1521 1521 1521 1521 1520 1520 1520 1520 1521 1521 1521 1521 1522 1522 1523 1523
1519 1520 1520 1520 1520 1520 1521 1521 1521 1521 1521 1520 1520 1520 1520 1520 1519 1519 1519 1519 1519 1519 1519 1520 1520 1520 1520 1520 1520 1520 1520 1520 1519 1519 1519 1519 1519 1520 1520 1521 1521 1521 1522
1518 1518 1518 1518 1518 1518 1519 1519 1519 1519 1519 1519 1518 1518 1518 1518 1518 1517 1517 1517 1517 1518 1518 1518 1519 1519 1519 1519 1519 1519 1519 1519 1519 1519 1519 1519 1519 1519 1519 1520 1520 1520 1520
1517 1517 1517 1517 1517 1516 1517 1516 1517 1517 1517 1517 1517 1517 1517 1516 1516 1516 1516 1516 1516 1516 1516 1517 1517 1517 1517 1517 1517 1517 1517 1518 1518 1518 1518 1518 1518 1518 1518 1518 1519 1518 1518
1515 1515 1515 1515 1515 1515 1515 1515 1515 1515 1515 1515 1515 1515 1515 1515 1515 1514 1514 1514 1515 1515 1515 1515 1515 1515 1515 1515 1516 1516 1516 1516 1516 1518 1517 1517 1517 1517 1517 1517 1517 1517 1517
1513 1513 1513 1513 1513 1513 1513 1513 1513 1513 1513 1513 1513 1513 1513 1513 1513 1513 1513 1513 1513 1513 1514 1514 1513 1513 1513 1513 1514 1514 1515 1515 1515 1516 1516 1516 1516 1515 1516 1516 1516 1516 1516
1511 1511 1511 1511 1511 1510 1511 1511 1511 1511 1511 1511 1511 1511 1511 1511 1511 1512 1512 1512 1511 1511 1512 1512 1512 1512 1512 1512 1512 1513 1513 1514 1514 1514 1515 1514 1514 1514 1514 1514 1514 1514 1514
1508 1508 1509 1509 1509 1509 1509 1509 1509 1509 1509 1509 1509 1509 1509 1509 1509 1510 1510 1510 1510 1510 1510 1510 1510 1510 1510 1510 1510 1511 1511 1511 1511 1512 1513 1512 1512 1512 1512 1513 1513 1513 1513
1506 1506 1506 1506 1506 1506 1506 1506 1507 1507 1507 1507 1507 1507 1507 1507 1507 1507 1507 1507 1508 1508 1508 1508 1508 1508 1508 1508 1508 1509 1509 1509 1509 1510 1510 1511 1510 1511 1511 1511 1511 1511 1511